Regional Weather Roundup
Issued by NWS

Home | Current Version | Previous Version | Text Only | Print | Product List | Glossary On
Versions: 1 2 3 4 5 6 7 8 9 10 11 12 13 14 15 16 17 18 19 20 21 22 23 24 25 26 27 28 29 30 31 32 33 34 35 36 37 38 39 40 41 42 43 44 45 46 47 48 49 50
000
ASUS43 KIND 290809
RWRIN

WEATHER ROUNDUP FOR INDIANA
NATIONAL WEATHER SERVICE INDIANAPOLIS IN
300 AM EST MON DEC 29 2014

NOTE: "FAIR" INDICATES FEW OR NO CLOUDS BELOW 12,000 FEET WITH NO
SIGNIFICANT WEATHER AND/OR OBSTRUCTIONS TO VISIBILITY.

* - STATION DOES NOT REPORT WEATHER SUCH AS PRECIPITATION OR FOG.

+ - STATION NOT QUALITY CONTROLLED BY THE NATIONAL WEATHER SERVICE.
    USE DATA WITH CAUTION...ESPECIALLY DEWPOINT AND RELATIVE
    HUMIDITY OBSERVATIONS.

INZ001>003-010>013-019-020-290900-
NORTHWEST INDIANA

CITY           SKY/WX    TMP DP  RH WIND       PRES   REMARKS
GARY /AIRPORT/ CLEAR     21  17  83 CALM      30.28R
KNOX *+        CLEAR     20  16  84 CALM      30.25R
LA PORTE +     CLEAR     24  20  85 W5        30.26R WCI  18
MICHIGAN CITY+ FAIR      25  18  74 CALM      30.26R
MONTICELLO +   CLEAR     21  20  96 CALM      30.26R FOG
RENSSELAER +   CLEAR     23  23 100 CALM      30.27R
VALPARAISO     CLEAR     24  16  71 W5        30.26R WCI  18

$$

LMZ046-743>745-290900-
SOUTHERN LAKE MICHIGAN

STATION/POSITION TIME  TEMP WIND        PRES
                       AIR  DIR/SP/G
                 (UTC) (F)  (DEG/KT/KT) (MB)
MICHIGAN CITY    0800   33  320/ 11/ 12   N/A

$$

INZ004-005-014>016-021>024-290900-
NORTH CENTRAL INDIANA

CITY           SKY/WX    TMP DP  RH WIND       PRES   REMARKS
GOSHEN         CLEAR     22  20  92 CALM      30.23R FOG
LOGANSPORT +   PTCLDY    23  21  93 CALM      30.27R FOG
PERU/GRISSOM   PTCLDY    24  24 100 NW3       30.25R
ROCHESTER +    CLEAR     27  27 100 CALM      30.26R FOG
SOUTH BEND     CLEAR     21  18  88 CALM      30.25R
WARSAW +       CLEAR     21  21 100 CALM      30.24R FOG

$$

INZ006>009-017-018-025>027-290900-
NORTHEAST INDIANA

CITY           SKY/WX    TMP DP  RH WIND       PRES   REMARKS
ANGOLA *+      CLEAR     23  21  93 CALM      30.21S
AUBURN +       CLEAR     23  21  93 CALM      30.24R FOG
FORT WAYNE     MOCLDY    23  21  92 SW5       30.25R WCI  17
HUNTINGTON +   PTCLDY    22  18  86 CALM      30.25R FOG

$$

INZ028-029-035-036-043>045-051>053-290900-
WEST CENTRAL INDIANA

CITY           SKY/WX    TMP DP  RH WIND       PRES   REMARKS
GREENCASTLE +  CLEAR     21  18  86 NE3       30.24S
LAFAYETTE      CLEAR     20  18  92 CALM      30.27R FOG
TERRE HAUTE    CLEAR     23  19  85 CALM      30.26R

$$

INZ030>032-037>040-046>048-054>057-064-065-290900-
CENTRAL INDIANA

CITY           SKY/WX    TMP DP  RH WIND       PRES   REMARKS
CP ATTERBURY + CLEAR     23  23 100 MISG      30.25R FOG
FRANKFORT +    CLEAR     22  22 100 CALM      30.26S FOG
GREENWOOD *+   CLEAR     25  21  86 N3        30.24
INDIANAPOLIS   CLEAR     22  20  92 N5        30.23R WCI  16
-EAGLE CREEK   CLEAR     23  20  88 N3        30.24R
KOKOMO *+      PTCLDY    23  19  86 NW3       30.25R
MARION +       PTCLDY    25  24  95 CALM      30.26R FOG
MT COMFORT *+  CLEAR     23 N/A N/A CALM      30.25R
SHELBYVILLE    CLEAR     26  22  84 N5        30.23R WCI  20
ZIONSVILLE +   CLEAR     24  21  89 N3        30.25R FOG

$$

INZ033-034-041-042-049-050-058-059-290900-
EAST CENTRAL INDIANA

CITY           SKY/WX    TMP DP  RH WIND       PRES   REMARKS
MUNCIE         PTCLDY    23  21  92 CALM      30.24R FOG

$$

INZ060-061-067>069-081>083-085>088-290900-
SOUTHWEST INDIANA

CITY           SKY/WX    TMP DP  RH WIND       PRES   REMARKS
EVANSVILLE     CLOUDY    32  26  78 N3        30.24R
HUNTINGBURG *+ CLOUDY    32  27  80 NE6       30.23R WCI  26
WASHINGTON +   CLEAR     26  22  87 N3        30.23F

$$

INZ062-063-066-070>080-084-089>092-290900-
SOUTH CENTRAL AND SOUTHEAST INDIANA

CITY           SKY/WX    TMP DP  RH WIND       PRES   REMARKS
BLOOMINGTON    CLEAR     23  21  92 CALM      30.23R
NORTH VERNON + CLEAR     27  27 100 CALM      30.23
SEYMOUR +      MOCLDY    30  27  86 N5        30.24  WCI  25

$$



USA.gov is the U.S. government's official web portal to all federal, state and local government web resources and services.